Regional Weather Roundup
Issued by NWS Boston, MA

Home | Current Version | Previous Version | Text Only | Print | Product List | Glossary On
Versions: 1 2 3 4 5 6 7 8 9 10 11 12 13 14 15 16 17 18 19 20 21 22 23 24 25 26 27 28 29 30 31 32 33 34 35 36 37 38 39 40 41 42 43 44 45 46 47 48 49 50
000
ASUS41 KBOX 230310
RWRBOX

REGIONAL WEATHER ROUNDUP
NATIONAL WEATHER SERVICE TAUNTON MA
1000 PM EST WED FEB 22 2017

NOTE:  "FAIR" INDICATES FEW OR NO CLOUDS BELOW 12,000 FEET WITH NO
SIGNIFICANT WEATHER AND/OR OBSTRUCTIONS TO VISIBILITY.

MAZALL-230400-
EASTERN MASSACHUSETTS

CITY           SKY/WX    TMP DP  RH WIND       PRES   REMARKS
BOSTON         CLEAR     41  38  89 S6        29.89F
BEVERLY        CLEAR     39  38  96 CALM      29.88F
LAWRENCE       CLEAR     42  37  82 CALM      29.89F
BEDFORD        CLEAR     35  30  82 CALM      29.87F
BLUE HILL        N/A     43  36  76 S12       29.87F
NORWOOD        CLEAR     35  33  92 CALM      29.89F
MARSHFIELD     CLEAR     36  36 100 CALM      29.89F
PLYMOUTH       CLEAR     37  35  92 CALM      29.91S
TAUNTON        CLEAR     33  31  92 CALM      29.90F
NEW BEDFORD    CLEAR     40  36  86 S3        29.91S
$$

MAZALL-230400-
CAPE COD AND THE ISLANDS

CITY           SKY/WX    TMP DP  RH WIND       PRES   REMARKS
FALMOUTH       FOG       37  36  93 MISG      29.93S VSB 1/2
HYANNIS        MOCLDY    39  39 100 SW8       29.90F FOG
CHATHAM        CLOUDY    40  39  97 SW6       29.93F FOG
PROVINCETOWN   CLEAR     40  37  89 S8        29.91F
NANTUCKET      CLOUDY    41  39  93 SW7       29.94S
MARTHAS VNYRD  FOG       43  41  93 SW9       29.92F VSB 3/4
$$

MAZALL-230400-
CENTRAL AND WESTERN MASSACHUSETTS

CITY           SKY/WX    TMP DP  RH WIND       PRES   REMARKS
WORCESTER      CLEAR     45  34  65 W10       29.87F
FITCHBURG      CLEAR     37  34  89 CALM      29.89S
ORANGE         CLOUDY    32  32 100 CALM      29.87F
SPRINGFIELD    PTCLDY    34  31  88 CALM      29.87S
WESTFIELD      PTCLDY    35  33  92 SW5       29.88S WCI  31
NORTH ADAMS    CLEAR     35  31  85 CALM      29.88R
PITTSFIELD     CLEAR     36  31  82 CALM      29.86S
$$

RIZALL-230400-
RHODE ISLAND

CITY           SKY/WX    TMP DP  RH WIND       PRES   REMARKS
PROVIDENCE     MOCLDY    40  35  83 CALM      29.90F
NEWPORT        CLEAR     41  38  89 S5        29.90F
BLOCK ISLAND   FOG       43  43 100 SW12      29.92F VSB 1/4
SMITHFIELD     CLEAR     40  35  83 SW3       29.89F
WESTERLY       PTCLDY    40  34  79 CALM      29.92F
$$

CTZALL-230400-
CONNECTICUT

CITY           SKY/WX    TMP DP  RH WIND       PRES   REMARKS
BRADLEY INTL   PTCLDY    42  36  79 S6        29.89R
HARTFORD       MOCLDY    43  36  76 S3        29.90S
BRIDGEPORT     CLEAR     41  36  82 CALM      29.91F
DANBURY        CLEAR     35  33  92 CALM      29.91S
GROTON         PTCLDY    39  36  89 NE3       29.91F
NEW HAVEN      CLEAR     37  34  89 CALM      29.91S
CHESTER        FAIR      43  37  81 CALM      29.90S
MERIDEN        CLEAR     39  35  86 CALM      29.91R
WILLIMANTIC    CLEAR     40  35  83 CALM      29.91S
OXFORD         CLEAR     43  34  70 CALM      29.92R
$$

MEZ002-015-021-024-NHZ003-005-008-011-012-014-VTZ005-008-230400-
NORTHERN NEW ENGLAND

CITY           SKY/WX    TMP DP  RH WIND       PRES   REMARKS
PORTLAND ME    CLEAR     31  27  85 CALM      29.90S
BANGOR ME      PTCLDY    33  28  81 S7        29.87F WCI  27
CONCORD NH     CLEAR     37  31  78 E5        29.88S
MANCHESTER NH  CLEAR     39  31  72 CALM      29.87F
NASHUA NH      CLEAR     36  33  89 CALM      29.88F
PORTSMOUTH NH  CLEAR     34  32  92 CALM      29.88F
JAFFREY NH     CLEAR     32  31  96 CALM      29.87F
KEENE NH       NOT AVBL
BURLINGTON VT  CLOUDY    39  33  79 CALM      29.83S
MT. WASHINGTON PTCLDY    32  10  40 W31         N/A  WCI  17
$$

NYZ052-076-230400-
EASTERN NEW YORK

CITY           SKY/WX    TMP DP  RH WIND       PRES   REMARKS
ALBANY         PTCLDY    48  35  60 S5        29.87S
NEW YORK CITY  CLOUDY    51  43  74 CALM      29.90F
$$

ANZALL-230400-
MARINE OBSERVATIONS

STATION/POSITION TIME  TEMP    WIND        PRES    VSBY  WAVE
                       AIR SEA DIR/SP/G                  HT/PER
                 (UTC) (F)     (DEG/KT/KT) (MB)    (MI)  (FT/S)
BOSTON BUOY      0150   42 42  130/ 10/ 10 1011.4          3/11
BUZZARDS BAY     0200   42     220/ 13/ 13 1013.7R
NANTUCKET SOUND  0250   41 39  210/  8/ 10 1013.5R         1/10
MASS BAY-STELLWA 0204   42 41  150/  8/  8 1011.6S         3/10
ISLE OF SHOALS   0200   42     190/  6/  7 1012.4R
S OF BLOCK IS    0255      42                N/A           3/10
$$

......................KEY.........................
  SKY/WX - SKY CONDITION/PRESENT WEATHER
  TMP    - TEMPERATURE IN FAHRENHEIT
  DWPT   - DEWPOINT IN FAHRENHEIT
  RH     - RELATIVE HUMIDITY IN PERCENT
  WIND   - DIRECTION AND SPEED IN MPH
  PRES   - MEAN SEA LEVEL PRESSURE IN INCHES OF HG
  WCI    - WIND CHILL INDEX
  VSB    - VISIBILITY IN MILES
  HX     - HEAT INDEX
  TC     - TEMPERATURE IN CELSIUS
  VRB    - VARIABLE WIND DIRECTION
  N/A    - NOT AVAILABLE



USA.gov is the U.S. government's official web portal to all federal, state and local government web resources and services.